Glasgow, MT

3:00 PM MDT on August 20, 2017 (GMT -0600)
Wokal-Glasgow International

Weather History for KGGW - February, 2014

Change the Weather History Date:

Friday, February 28, 2014

  Actual Average Record
Temperature  
Mean Temperature -1 °F 24 °F  
Max Temperature 13 °F 34 °F 65 °F (1992)
Min Temperature -15 °F 14 °F -37 °F (1962)
Degree Days  
Heating Degree Days 66 41  
Month to date heating degree days 1516 1281  
Since 1 July heating degree days 6648 6370  
Cooling Degree Days 0 0  
Month to date cooling degree days 0 0  
Year to date cooling degree days 0 0  
Moisture  
Dew Point -11 °F    
Average Humidity 62    
Maximum Humidity 76    
Minimum Humidity 47    
Precipitation  
Precipitation 0.00 in 0.01 in 0.64 in (2006)
Month to date precipitation 0.22 0.26  
Year to date precipitation 0.35 0.63  
Snow  
Snow 0.00 in 0.20 in 2.00 in (2007)
Month to date snowfall 3.9 4.4  
Since 1 July snowfall 23.8 27.0  
Snow Depth T in    
Sea Level Pressure  
Sea Level Pressure 30.26 in    
Wind  
Wind Speed 17 mph (NNW)    
Max Wind Speed 35 mph    
Max Gust Speed 42 mph    
Visibility 10 miles    
Events      
T = Trace of Precipitation, MM = Missing Value Source: NWS Daily Summary

Daily Weather History Graph

Daily Weather History Graph

Search for Another Location

Airport or City:

Trip Planner

Search our weather history database for the weather conditions in past years. The results will help you decide how hot, cold, wet, or windy it might be!

Date:

Astronomy

Feb. 28, 2014 Rise Set
Actual Time 6:49 AM MST 5:49 PM MST
Civil Twilight 6:18 AM MST 6:20 PM MST
Nautical Twilight 5:42 AM MST 6:56 PM MST
Astronomical Twilight 5:05 AM MST 7:32 PM MST
Moon 6:06 AM MST (2/28) 5:31 PM MST (2/28)
Length of Visible Light 12h 02m
Length of Day
10h 59m
Waning Crescent, 0% of the Moon is Illuminated
Feb 28
Waning Crescent
Mar 1
New
Mar 8
First Quarter
Mar 16
Full
Mar 23
Last Quarter

Hourly Weather History & Observations

Time (MST) Temp. Windchill Dew Point Humidity Pressure Visibility Wind Dir Wind Speed Gust Speed Precip Events Conditions
12:53 AM 10.9 °F -10.3 °F 1.9 °F 67% 29.89 in 10.0 mi NW 27.6 mph 38.0 mph N/A   Overcast
1:11 AM 10.9 °F -11.9 °F 1.9 °F 67% 29.77 in 10.0 mi NNW 33.4 mph 40.3 mph N/A   Overcast
1:33 AM 10.0 °F -11.9 °F -0.0 °F 64% 29.80 in 10.0 mi NNW 28.8 mph 39.1 mph N/A   Overcast
1:53 AM 10.0 °F -11.1 °F -0.9 °F 61% 29.95 in 10.0 mi NNW 26.5 mph 35.7 mph N/A   Overcast
2:53 AM 7.0 °F -14.9 °F -0.9 °F 70% 29.99 in 10.0 mi NNW 25.3 mph 36.8 mph N/A   Overcast
3:53 AM 7.0 °F -10.4 °F -0.9 °F 70% 30.05 in 10.0 mi NNW 15.0 mph - N/A   Overcast
4:53 AM 5.0 °F -15.2 °F -2.9 °F 70% 30.13 in 10.0 mi NNW 19.6 mph - N/A   Overcast
5:53 AM 1.0 °F -18.0 °F -8.0 °F 66% 30.19 in 10.0 mi NNW 15.0 mph - N/A   Clear
6:53 AM -0.9 °F -21.2 °F -9.0 °F 69% 30.25 in 10.0 mi NNW 16.1 mph - N/A   Mostly Cloudy
7:53 AM -0.9 °F -23.0 °F -9.9 °F 66% 30.27 in 10.0 mi NNW 19.6 mph - N/A   Overcast
8:53 AM -0.0 °F -21.8 °F -11.0 °F 60% 30.30 in 10.0 mi NNW 19.6 mph - N/A   Scattered Clouds
9:44 AM -0.0 °F -21.3 °F -9.0 °F 66% 30.14 in 7.0 mi NNW 18.4 mph 23.0 mph N/A   Mostly Cloudy
9:53 AM -0.0 °F -20.1 °F -9.0 °F 66% 30.29 in 5.0 mi NNW 16.1 mph - N/A   Haze
10:02 AM 1.0 °F -19.9 °F -11.0 °F 57% 30.14 in 10.0 mi North 18.4 mph - N/A   Mostly Cloudy
10:42 AM 1.0 °F -19.9 °F -9.9 °F 60% 30.15 in 10.0 mi NNW 18.4 mph - N/A   Mostly Cloudy
10:53 AM 1.0 °F -20.9 °F -11.0 °F 57% 30.31 in 10.0 mi NW 20.7 mph - N/A   Mostly Cloudy
11:53 AM 1.0 °F -18.7 °F -13.0 °F 52% 30.35 in 10.0 mi NNW 16.1 mph - N/A   Mostly Cloudy
12:00 PM 1.0 °F -19.9 °F -11.9 °F 55% 30.18 in 10.0 mi NW 18.4 mph - N/A   Mostly Cloudy
12:37 PM 1.9 °F -16.2 °F -11.0 °F 55% 30.17 in 10.0 mi NW 13.8 mph - N/A   Mostly Cloudy
12:49 PM 1.4 °F -18.8 °F -11.2 °F 56% 30.17 in 10.0 mi NW 17.3 mph 21.9 mph N/A   Overcast
12:53 PM 1.0 °F -18.7 °F -11.0 °F 57% 30.34 in 10.0 mi NW 16.1 mph - N/A   Overcast
1:08 PM 1.0 °F -19.9 °F -11.9 °F 55% 30.17 in 8.0 mi NW 18.4 mph - N/A   Mostly Cloudy
1:53 PM 3.0 °F -16.1 °F -11.9 °F 50% 30.34 in 10.0 mi WNW 16.1 mph 23.0 mph N/A   Mostly Cloudy
2:53 PM 1.9 °F -17.5 °F -14.1 °F 47% 30.36 in 10.0 mi NNW 16.1 mph 26.5 mph N/A   Partly Cloudy
3:53 PM 1.0 °F -19.3 °F -14.1 °F 49% 30.37 in 10.0 mi NNW 17.3 mph 26.5 mph N/A   Partly Cloudy
4:53 PM -0.9 °F -21.2 °F -16.1 °F 49% 30.40 in 10.0 mi North 16.1 mph 24.2 mph N/A   Mostly Cloudy
5:53 PM -5.1 °F -25.9 °F -17.0 °F 57% 30.45 in 10.0 mi NNW 15.0 mph - N/A   Clear
6:53 PM -7.1 °F -25.9 °F -18.0 °F 59% 30.49 in 10.0 mi North 11.5 mph - N/A   Clear
7:53 PM -9.0 °F -28.4 °F -18.9 °F 62% 30.51 in 10.0 mi North 11.5 mph - N/A   Mostly Cloudy
8:53 PM -9.9 °F -32.1 °F -20.9 °F 59% 30.55 in 10.0 mi NNW 15.0 mph - N/A   Clear
9:53 PM -11.9 °F -33.8 °F -20.9 °F 64% 30.59 in 10.0 mi North 13.8 mph - N/A   Clear
10:53 PM -13.0 °F -36.0 °F -22.0 °F 64% 30.61 in 10.0 mi North 15.0 mph - N/A   Clear
11:53 PM -15.0 °F -33.7 °F -24.0 °F 64% 30.65 in 10.0 mi North 9.2 mph - N/A   Clear